Lid_Strength_Index
5 5 5 4 4 3 3 3 2 2 2 2 2 1 1 1 1 1 1 1 2 2 2 1 0 0 1 1 1 1 1 2 2
6 5 5 4 4 3 3 3 3 2 2 2 2 2 1 1 1 1 1 1 1 1 2 1 1 0 0 0 0 1 2 2 2
6 5 5 4 4 3 3 3 2 2 2 2 2 1 1 1 1 1 1 1 2 2 2 1 0 0 0 0 0 1 2 2 1
6 5 5 4 4 3 3 2 2 2 2 2 2 2 1 1 1 1 1 1 1 1 2 1 1 0 0 1 1 1 1 1 1
5 5 5 4 4 3 3 3 3 3 2 2 2 1 1 2 1 1 1 1 1 2 1 2 1 1 1 1 1 1 1 1 1
5 5 5 4 4 4 3 3 3 3 2 2 2 2 2 2 2 1 1 1 1 2 2 1 1 1 1 1 1 1 1 1 1
5 5 5 5 4 4 3 3 3 3 2 2 2 2 2 2 2 2 1 1 1 1 2 2 1 1 1 1 1 1 1 1 1
8 5 5 5 4 4 3 3 3 3 2 2 2 2 2 2 2 1 1 1 1 1 1 1 1 1 1 1 1 1 1 1 1
6 6 5 5 4 4 4 3 3 3 3 2 2 2 2 2 2 1 2 1 1 1 1 1 1 2 1 1 1 3 4 2 1
6 5 5 5 4 4 3 3 3 3 3 2 2 2 2 2 2 2 2 2 1 2 2 1 1 1 1 1 1 4 5 4 1
7 5 5 4 4 3 3 3 2 2 2 2 2 3 2 2 2 2 2 2 2 2 1 2 2 1 1 1 1 5 6 5 1
6 6 6 5 3 3 3 3 2 2 3 3 3 3 2 2 2 2 2 2 2 2 2 2 2 1 2 2 1 6 7 6 2
5 5 4 6 5 4 3 3 2 3 3 3 3 3 2 2 2 2 2 2 2 2 1 2 1 2 1 3 2 7 8 7 2
6 5 4 4 4 6 6 5 3 3 3 3 2 2 2 2 2 2 2 2 2 2 2 2 2 2 1 1 2 2 9 10 2
7 6 4 4 4 4 3 3 3 4 4 3 2 2 2 2 2 2 2 2 2 2 2 2 2 2 2 1 1 6 9 10 9
8 6 6 5 4 4 3 3 3 4 4 3 2 3 3 3 2 2 2 2 2 2 2 3 3 3 3 2 2 1 9 11 11
6 7 6 5 4 4 5 4 3 3 4 4 3 3 3 3 3 3 2 2 2 2 3 3 3 3 3 3 2 2 1 4 8
6 6 6 5 5 4 4 4 4 4 3 2 4 4 3 4 4 4 4 10 9 4 3 4 3 3 2 3 3 3 9 8 5
6 6 5 5 5 5 4 4 3 3 3 3 3 4 5 5 4 4 6 9 10 16 17 18 16 14 9 13 15 18 18 17 17
8 8 6 4 4 5 4 4 4 3 4 4 4 4 5 6 5 3 7 9 8 10 12 17 19 19 19 17 17 18 18 18 18